Location: Newark
(45.6000°N, 12.8833°E)
Time: 08:23:55
(UTC+00:00)

N. Korean satellite - Visible Passes

Search period start: 15 October 2019 00:00
Search period end: 25 October 2019 00:00
Orbit: 455 x 508 km, 97.2° (Epoch: 14 October)

Date Brightness Start Highest point End Pass type
(mag) Time Alt. Az. Time Alt. Az. Time Alt. Az.
16 Oct 7.4 04:56:27 10° NNE 04:59:59 58° E 05:03:34 10° S visible
16 Oct 9.9 17:08:34 10° SW 17:10:56 18° W 17:13:19 10° NW visible
17 Oct 9.0 04:31:28 10° NE 04:34:38 28° E 04:37:48 10° SSE visible
18 Oct 10.1 04:07:03 10° NE 04:09:10 15° E 04:11:19 10° SE visible
19 Oct 10.5 17:27:37 10° WSW 17:28:34 11° W 17:29:32 10° WNW visible
20 Oct 7.9 04:48:41 10° NNE 04:52:11 47° E 04:55:44 10° S visible
20 Oct 9.5 17:00:22 10° SSW 17:03:03 21° W 17:05:47 10° NW visible
21 Oct 9.4 04:23:49 10° NE 04:26:47 24° E 04:29:47 10° SSE visible
22 Oct 10.3 03:59:41 10° ENE 04:01:18 12° E 04:02:54 10° ESE visible
23 Oct 10.1 17:18:51 10° WSW 17:20:39 14° W 17:22:27 10° WNW visible
24 Oct 8.3 04:40:55 10° NNE 04:44:21 38° E 04:47:48 10° SSE visible
24 Oct 9.1 16:52:11 10° SSW 16:55:08 26° W 16:58:08 10° NW visible
